Temp_Advection
nan nan nan nan nan nan nan nan nan nan nan nan nan nan nan nan nan nan nan nan nan nan
nan 0 0 0 0 0 0 0 0 0 0 0 -0 -0 -0 -0 -0 -0 -0 -0 -0 nan
nan 0 0 0 0 0 0 0 0 0 0 0 -0 -0 -0 -0 -0 -0 -0 -0 -0 nan
nan 0 1 1 0 0 0 0 0 0 0 0 -0 -0 -0 -0 -0 -0 0 0 0 nan
nan 0 0 0 0 1 1 0 0 0 0 0 -0 -0 -0 -0 -0 -0 -0 0 -0 nan
nan 0 0 0 1 1 1 0 0 0 0 -0 -0 -0 -0 -0 -0 -0 0 -0 -0 nan
nan 1 1 1 1 1 0 0 0 0 0 -0 -0 -0 -0 -0 -0 -0 0 0 0 nan
nan 1 1 1 1 0 0 0 0 0 -0 -0 -0 -0 -0 -0 -0 -0 -0 0 0 nan
nan 1 1 1 0 0 0 0 0 0 -0 -0 -0 -0 -0 -0 -0 -0 -0 -0 -0 nan
nan 1 0 0 0 0 0 0 0 -0 -0 -0 -0 -0 -0 -0 0 0 0 0 0 nan
nan 0 0 0 0 0 0 0 -0 -0 -0 -0 -0 -0 -0 -0 -0 0 0 -0 -0 nan
nan 0 0 0 0 0 0 -0 -0 -0 -0 -0 -0 -0 -0 -0 -0 -0 -0 -0 -0 nan
nan 0 0 0 0 -0 -0 -0 -0 -0 -0 -0 -0 -0 -0 0 -0 -0 -0 -0 -0 nan
nan nan nan nan nan nan nan nan nan nan nan nan nan nan nan nan nan nan nan nan nan nan
Wind_Speed
23 25 27 28 26 20 15 10 8 9 10 13 16 17 18 18 18 18 18 18 20 21
26 25 28 28 23 18 13 10 9 10 12 14 16 18 19 18 18 17 18 20 22 23
25 27 28 25 20 16 12 10 10 11 13 15 17 18 19 18 17 18 20 22 24 25
28 28 25 21 17 14 12 11 10 12 14 15 17 18 18 17 18 20 22 24 26 26
28 26 23 19 16 14 12 11 11 13 14 15 17 18 18 18 20 23 25 27 27 28
25 23 20 17 15 14 11 10 11 12 14 16 17 19 19 20 23 25 27 27 28 27
23 20 18 16 15 11 10 10 11 12 15 17 18 18 21 23 25 27 28 28 26 23
21 19 17 15 12 10 9 10 11 13 16 17 18 20 23 25 27 28 28 26 23 22
19 18 15 12 9 8 8 10 12 15 17 18 20 23 25 27 27 27 26 25 23 23
18 15 12 9 7 6 8 11 14 16 17 20 22 24 26 26 26 25 25 24 24 24
15 12 9 7 5 6 10 12 15 17 19 22 24 25 26 26 25 24 22 22 23 24
12 10 6 3 5 8 11 13 15 18 21 22 23 24 25 24 23 22 22 22 22 26
10 6 3 4 7 10 12 14 17 18 20 21 22 23 23 20 19 21 23 22 23 26
6 3 4 7 9 11 13 15 17 18 19 20 22 23 22 21 17 20 23 23 24 27
Wind_Direction
195 193 197 193 192 194 202 220 251 279 304 320 328 333 336 335 333 330 329 328 327 323
191 194 191 189 193 200 212 234 258 282 304 316 325 330 333 332 329 326 325 323 321 319
183 185 187 193 199 208 222 241 263 285 302 314 322 327 330 327 324 322 321 320 321 319
177 181 189 198 206 217 232 247 266 287 301 313 321 326 324 320 320 322 323 320 317 317
179 184 192 200 210 222 235 249 271 289 303 314 322 321 318 320 323 321 318 317 317 317
184 187 192 201 212 222 236 257 278 294 307 317 320 317 319 322 320 318 319 320 319 319
184 187 193 202 212 223 244 268 285 299 312 318 317 318 320 319 318 319 319 319 320 321
184 188 195 202 213 231 255 276 294 309 315 315 317 319 318 319 319 318 317 318 321 319
186 190 194 204 220 243 269 292 307 311 312 315 317 317 319 320 319 316 316 319 319 319
186 188 194 209 229 260 290 304 308 312 315 315 318 319 320 321 317 316 316 318 320 319
182 188 197 211 245 289 300 308 312 313 316 319 320 322 321 320 319 315 316 320 318 317
183 188 193 230 284 297 308 313 313 317 319 322 323 321 323 323 319 318 321 323 319 326
177 184 213 277 300 310 313 315 317 321 324 324 322 323 326 325 319 323 326 323 319 324
168 198 277 305 312 314 315 318 323 324 325 326 324 326 329 327 326 323 323 318 319 322
Height
1475 1480 1485 1490 1494 1496 1498 1500 1502 1504 1504 1503 1501 1500 1498 1496 1494 1492 1489 1487 1486 1484
1473 1478 1483 1488 1491 1493 1495 1497 1500 1501 1501 1499 1498 1497 1495 1493 1491 1489 1486 1484 1482 1479
1471 1477 1482 1486 1489 1491 1493 1495 1497 1498 1497 1496 1495 1494 1493 1490 1488 1486 1483 1480 1477 1473
1469 1475 1480 1485 1487 1490 1491 1492 1494 1495 1494 1493 1492 1491 1489 1487 1484 1482 1479 1475 1471 1468
1469 1473 1478 1482 1485 1487 1489 1489 1491 1491 1491 1490 1488 1487 1485 1483 1480 1477 1473 1469 1465 1462
1469 1472 1475 1479 1483 1484 1486 1486 1487 1488 1488 1486 1485 1483 1480 1478 1475 1471 1467 1463 1459 1455
1468 1471 1474 1477 1479 1481 1482 1483 1484 1484 1484 1483 1481 1479 1476 1473 1469 1465 1461 1457 1453 1449
1467 1470 1471 1474 1476 1478 1479 1480 1481 1481 1480 1479 1477 1474 1471 1466 1463 1459 1455 1451 1447 1443
1465 1467 1469 1472 1474 1475 1476 1478 1478 1477 1476 1474 1472 1469 1465 1461 1456 1452 1448 1444 1441 1437
1464 1466 1468 1470 1471 1473 1474 1475 1474 1473 1472 1469 1466 1463 1459 1455 1450 1446 1442 1438 1435 1431
1462 1464 1466 1467 1469 1471 1472 1471 1471 1469 1467 1464 1460 1457 1453 1449 1444 1440 1437 1434 1429 1425
1461 1462 1464 1466 1468 1469 1469 1468 1467 1465 1461 1459 1456 1451 1447 1443 1439 1435 1431 1428 1424 1420
1460 1462 1464 1465 1466 1466 1466 1465 1463 1460 1457 1453 1450 1446 1442 1438 1433 1429 1426 1422 1418 1415
1459 1461 1462 1463 1464 1464 1463 1461 1459 1456 1453 1450 1445 1441 1437 1433 1429 1426 1422 1418 1414 1410